Regional Weather Roundup
Issued by NWS Northern Indiana

Home | Current Version | Previous Version | Text Only | Print | Product List | Glossary On
Versions: 1 2 3 4 5 6 7 8 9 10 11 12 13 14 15 16 17 18 19 20 21 22 23 24 25 26 27 28 29 30 31 32 33 34 35 36 37 38 39 40 41 42 43 44 45 46 47 48 49 50
000
ASUS43 KIWX 270710
RWRIWX

KIWX WEATHER ROUNDUP
NATIONAL WEATHER SERVICE NORTHERN INDIANA
200 AM EST MON FEB 27 2017

NOTE: "FAIR" INDICATES FEW OR NO CLOUDS BELOW 12,000 FEET WITH NO
SIGNIFICANT WEATHER AND/OR OBSTRUCTIONS TO VISIBILITY.

* THESE STATIONS ARE NOT UNDER NWS QUALITY CONTROL. THEY ALSO MAY NOT
  REPORT WEATHER SUCH AS PRECIPITATION OR FOG.

INZ001>027-270800-
NORTHERN INDIANA

CITY           SKY/WX    TMP DP  RH WIND       PRES   REMARKS
GARY*          PTCLDY    37  23  56 SW6       30.11R
VALPARAISO     PTCLDY    34  24  67 SW8       30.11R WCI  27
MICHIGAN CITY* MOCLDY    34  25  69 SW7       30.11R WCI  28
LAPORTE*       PTCLDY    32  24  71 SW7       30.11S WCI  26
KNOX*          PTCLDY    32   5  32 SW5       30.12S WCI  27
SOUTH BEND     CLEAR     33  22  63 SW7       30.11R WCI  27
GOSHEN         CLEAR     33  22  63 SW9       30.12R WCI  25
MONTICELLO*    PTCLDY    34  21  60 S5        30.14R WCI  30
LOGANSPORT*    MOCLDY    30  25  80 SW7       30.15R WCI  23
ROCHESTER*     CLEAR     36  27  69 SW5       30.13S
ANGOLA*        CLEAR     36  25  64 SW8       30.10S
FORT WAYNE     PTCLDY    32  24  72 S8        30.14R WCI  25
HUNTINGTON*    CLEAR     36  21  55 SW6       30.14R
PERU/GRISSOM   PTCLDY    31  24  73 SW7       30.13R WCI  25
MARION*        PTCLDY    32  23  67 S8        30.15S WCI  25

$$
INZ028>050-270800-
CENTRAL INDIANA

CITY           SKY/WX    TMP DP  RH WIND       PRES   REMARKS
LAFAYETTE      CLEAR     31  22  69 CALM      30.14S
KOKOMO*        MOCLDY    34  22  61 S8        30.15R WCI  27
MUNCIE*        CLOUDY    40  20  44 S8        30.15R
INDIANAPOLIS   CLOUDY    43  26  51 SW13      30.16R

$$
MIZ043>046-050>051-056>058-064>065-071>073-077>080-270800-
SOUTHWEST LOWER MICHIGAN

CITY           SKY/WX    TMP DP  RH WIND       PRES   REMARKS
BATTLE CREEK   CLEAR     35  24  64 SW13      30.07R WCI  26
BENTON HARBOR  PTCLDY    39  24  55 SW15      30.09R
COLDWATER*     CLEAR     36  22  57 SW9       30.10R
HILLSDALE*     CLEAR     34  23  64 SW9       30.09R WCI  26
HOLLAND        CLEAR     38  30  73 SW16      30.05R
GRAND RAPIDS   PTCLDY    37  26  64 SW14      30.04R
KALAMAZOO      CLEAR     37  22  54 SW14      30.08R
STURGIS*       CLEAR     32  24  71 SW8       30.10R WCI  25
THREE RIVERS*  FAIR      32  24  70 SW6       30.11R WCI  27

$$
OHZ001>008-015>018-024>025-270800-
NORTHWEST OHIO

CITY           SKY/WX    TMP DP  RH WIND       PRES   REMARKS
WAUSEON*       CLOUDY    34  23  64 SW8       30.13R WCI  27
DEFIANCE       CLEAR     30  22  72 S3        30.14R
FINDLAY        PTCLDY    36  22  56 S13       30.14S
TOLEDO EXPRESS MOCLDY    35  22  58 SW7       30.13R WCI  29
TOLEDO METCALF CLOUDY    36  23  59 SW8       30.15R
LIMA           PTCLDY    37  22  54 S10       30.15R

$$
AND FOR LAKE MICHIGAN COASTAL AND OPEN LAKE BUOY OBSERVATIONS

STATION/POSITION TEMP    WIND        PRES    VSBY  WAVE
                 AIR SEA DIR/SP/G                  HT/PER
                 (F)     (DEG/KT/KT) (MB)    (MI)  (FT/S)
CALUMET HARBOR    38                 1018.3R
MICHIGAN CITY     38     190/ 17/ 18   N/A
BURNS HARBOR      39     210/ 13/ 20 1019.6R
SAINT JOSEPH      39     210/ 16/ 20 1019.6

$$
&&



USA.gov is the U.S. government's official web portal to all federal, state and local government web resources and services.